KB3YCK-2 Weather Reports


time (UTC)temp
C
wind
direction
speed
KPH
gust
KPH
rain 1hr
cm
rain 24hr
cm
rain mn
cm
humidity
%
barometer
mb
20260506222003 20 239 4.8 19.3 0.00 0.33 0.33 85 1008.6
20260506221509 20 178 6.4 19.3 0.00 0.33 0.33 85 1008.6
20260506221002 20 217 1.6 17.7 0.00 0.33 0.33 85 1008.5
20260506220502 20 44 4.8 17.7 0.00 0.33 0.33 85 1008.3
20260506220003 20 68 6.4 17.7 0.00 0.33 0.33 85 1008.2
20260506215507 20 56 3.2 19.3 0.00 0.33 0.33 86 1008.2
20260506215006 20 146 6.4 20.9 0.00 0.33 0.33 85 1008.3
20260506214505 20 200 6.4 20.9 0.00 0.33 0.33 85 1008.2
20260506214001 20 323 3.2 17.7 0.00 0.33 0.33 86 1008.2
20260506213506 20 275 4.8 16.1 0.00 0.33 0.33 86 1008.1
20260506213010 20 282 3.2 16.1 0.00 0.33 0.33 86 1008.2
20260506212503 20 239 1.6 16.1 0.00 0.33 0.33 86 1008.1
20260506212003 20 338 1.6 16.1 0.00 0.33 0.33 86 1008.0
20260506211510 20 250 1.6 12.9 0.00 0.33 0.33 85 1008.1
20260506211003 20 284 3.2 16.1 0.00 0.33 0.33 85 1008.0
20260506210503 20 115 3.2 16.1 0.00 0.33 0.33 85 1008.3
20260506210010 20 212 3.2 22.5 0.00 0.33 0.33 84 1008.1
20260506205508 20 9 1.6 17.7 0.00 0.33 0.33 84 1008.0
20260506205004 20 239 1.6 22.5 0.00 0.33 0.33 84 1008.0
20260506204504 20 221 6.4 22.5 0.00 0.33 0.33 84 1007.9
20260506204006 20 265 6.4 20.9 0.00 0.33 0.33 85 1007.8
20260506203508 20 288 4.8 16.1 0.00 0.33 0.33 85 1008.0
20260506203002 20 305 4.8 16.1 0.00 0.33 0.33 85 1007.9
20260506202503 20 9 3.2 27.4 0.00 0.33 0.33 85 1008.0
20260506202010 20 309 4.8 27.4 0.00 0.33 0.33 85 1007.9
20260506201502 20 239 8.0 24.1 0.00 0.33 0.33 85 1007.8
20260506201004 19 298 3.2 19.3 0.00 0.33 0.33 85 1007.9
20260506200503 19 93 4.8 19.3 0.00 0.33 0.33 84 1007.9
20260506200020 19 164 6.4 20.9 0.00 0.33 0.33 84 1007.9
20260506195503 19 282 4.8 20.9 0.00 0.33 0.33 84 1007.9
20260506195006 18 286 3.2 24.1 0.00 0.33 0.33 85 1007.9
20260506194512 18 296 6.4 24.1 0.00 0.33 0.33 84 1008.1
20260506194009 18 298 4.8 22.5 0.00 0.33 0.33 84 1008.1
20260506193504 18 198 6.4 20.9 0.00 0.33 0.33 85 1008.2
20260506193016 18 193 6.4 16.1 0.00 0.33 0.33 85 1008.2
20260506192507 17 137 3.2 17.7 0.00 0.33 0.33 85 1008.2
20260506192003 17 129 1.6 17.7 0.00 0.33 0.33 86 1008.3
20260506191503 17 330 3.2 16.1 0.00 0.33 0.33 86 1008.3
20260506191004 17 9 3.2 19.3 0.00 0.33 0.33 86 1008.5
20260506190510 16 178 1.6 19.3 0.00 0.33 0.33 86 1008.6
20260506190005 16 108 1.6 14.5 0.00 0.33 0.33 86 1008.5
20260506185504 16 243 3.2 16.1 0.00 0.33 0.33 86 1008.6
20260506185008 16 229 4.8 16.1 0.00 0.33 0.33 86 1008.7
20260506184518 16 309 1.6 16.1 0.00 0.33 0.33 86 1008.7
20260506184004 16 110 4.8 17.7 0.00 0.33 0.33 86 1008.7
20260506183508 16 162 3.2 17.7 0.00 0.33 0.33 86 1008.7
20260506183022 16 129 4.8 17.7 0.00 0.33 0.33 86 1008.7
20260506182505 16 193 4.8 17.7 0.00 0.33 0.33 86 1008.7
20260506182011 16 239 3.2 19.3 0.00 0.33 0.33 86 1008.7
20260506181516 16 41 6.4 19.3 0.00 0.33 0.33 87 1008.8
20260506181002 16 232 4.8 19.3 0.00 0.33 0.33 87 1008.9
20260506180503 16 250 4.8 19.3 0.00 0.33 0.33 87 1008.9
20260506180009 16 272 1.6 19.3 0.00 0.33 0.33 87 1009.0
20260506175503 16 314 4.8 19.3 0.00 0.33 0.33 87 1008.9
20260506175006 16 51 4.8 19.3 0.00 0.33 0.33 87 1008.9
20260506174504 16 169 4.8 19.3 0.00 0.33 0.33 87 1008.9
20260506174006 16 196 3.2 19.3 0.00 0.33 0.33 87 1008.9
20260506173503 16 265 3.2 22.5 0.00 0.33 0.33 87 1008.9
20260506173004 16 93 4.8 22.5 0.00 0.33 0.33 88 1009.0
20260506172504 16 250 3.2 17.7 0.00 0.33 0.33 88 1009.0
20260506172008 16 316 4.8 16.1 0.00 0.33 0.33 88 1009.1
20260506171503 16 51 3.2 30.6 0.00 0.33 0.33 88 1009.1
20260506171003 16 239 9.7 30.6 0.00 0.33 0.33 88 1009.0
20260506170505 16 239 4.8 22.5 0.00 0.33 0.33 88 1009.1
20260506170003 16 215 3.2 24.1 0.03 0.33 0.33 88 1009.1
20260506165506 16 200 4.8 24.1 0.03 0.33 0.33 88 1009.2
20260506165003 16 219 4.8 16.1 0.05 0.33 0.33 88 1009.2
20260506164514 16 236 4.8 16.1 0.08 0.33 0.33 88 1009.2
20260506164002 16 265 4.8 22.5 0.08 0.33 0.33 89 1009.2
20260506163503 16 250 4.8 22.5 0.10 0.33 0.33 89 1009.2
20260506163009 16 51 3.2 16.1 0.10 0.33 0.33 89 1009.3
20260506162504 16 250 6.4 20.9 0.13 0.33 0.33 89 1009.4
20260506162003 16 239 3.2 20.9 0.13 0.33 0.33 89 1009.5
20260506161508 16 230 6.4 20.9 0.13 0.33 0.33 89 1009.4
20260506161004 16 242 4.8 16.1 0.13 0.33 0.33 89 1009.5
20260506160513 16 319 3.2 16.1 0.13 0.33 0.33 89 1009.3
20260506160006 16 265 3.2 9.7 0.13 0.30 0.30 89 1009.4
20260506155506 16 61 0.0 12.9 0.15 0.30 0.30 89 1009.6
20260506155007 16 325 1.6 14.5 0.15 0.28 0.28 89 1009.8
20260506154503 16 247 1.6 14.5 0.13 0.25 0.25 90 1010.0
20260506154004 16 309 3.2 14.5 0.15 0.25 0.25 90 1010.0
20260506153512 16 205 3.2 20.9 0.15 0.23 0.23 90 1010.2
20260506153016 16 238 4.8 22.5 0.18 0.23 0.23 90 1010.3
20260506152503 16 162 1.6 22.5 0.15 0.20 0.20 90 1010.4
20260506152007 16 153 3.2 11.3 0.15 0.20 0.20 90 1010.4
20260506151511 16 221 3.2 9.7 0.18 0.20 0.20 90 1010.3
20260506151005 16 153 1.6 9.7 0.18 0.20 0.20 90 1010.2
20260506150504 16 292 1.6 14.5 0.20 0.20 0.20 90 1010.1
20260506150006 16 103 1.6 24.1 0.18 0.18 0.18 90 1010.0
20260506145508 16 259 4.8 24.1 0.15 0.15 0.15 90 1009.9
20260506145003 16 279 1.6 19.3 0.13 0.13 0.13 90 1010.0
20260506144512 16 9 3.2 19.3 0.13 0.13 0.13 90 1010.1
20260506144007 16 113 3.2 16.1 0.10 0.10 0.10 89 1010.0
20260506143511 16 336 1.6 16.1 0.08 0.08 0.08 89 1010.1
20260506143005 16 246 4.8 16.1 0.05 0.05 0.05 89 1010.3
20260506142503 16 239 3.2 14.5 0.05 0.05 0.05 89 1010.4
20260506142005 16 257 4.8 17.7 0.05 0.05 0.05 89 1010.3
20260506141523 16 51 1.6 17.7 0.03 0.03 0.03 89 1010.2
20260506141006 17 178 4.8 17.7 0.03 0.03 0.03 88 1010.1
20260506140507 17 215 1.6 16.1 0.00 0.00 0.00 87 1010.1
20260506140016 17 149 4.8 19.3 0.00 0.00 0.00 86 1010.3
20260506135503 17 61 6.4 19.3 0.00 0.00 0.00 86 1010.3
20260506135005 17 275 4.8 22.5 0.00 0.00 0.00 85 1010.2
20260506134512 17 319 3.2 22.5 0.00 0.00 0.00 84 1010.2
20260506134005 17 245 4.8 22.5 0.00 0.00 0.00 84 1010.1
20260506133503 17 93 6.4 25.7 0.00 0.00 0.00 85 1010.1
20260506133007 17 111 3.2 25.7 0.00 0.00 0.00 86 1010.0
20260506132508 17 123 3.2 22.5 0.00 0.00 0.00 86 1010.1
20260506132012 17 178 3.2 25.7 0.00 0.00 0.00 86 1010.1
20260506131507 17 117 8.0 32.2 0.00 0.00 0.00 85 1010.1
20260506131004 17 131 4.8 32.2 0.00 0.00 0.00 85 1010.1
20260506130509 17 22 4.8 20.9 0.00 0.00 0.00 85 1010.1
20260506130024 17 309 6.4 20.9 0.00 0.00 0.00 84 1010.1
20260506125504 17 22 3.2 19.3 0.00 0.00 0.00 84 1010.2
20260506125006 17 93 3.2 24.1 0.00 0.00 0.00 84 1010.3
20260506124520 17 178 8.0 24.1 0.00 0.00 0.00 84 1010.3
20260506124003 17 249 4.8 22.5 0.00 0.00 0.00 84 1010.3
20260506123510 17 223 6.4 19.3 0.00 0.00 0.00 84 1010.3
20260506123016 17 321 4.8 20.9 0.00 0.00 0.00 84 1010.4
20260506122510 17 221 4.8 29.0 0.00 0.00 0.00 84 1010.3
20260506122003 17 275 3.2 29.0 0.00 0.00 0.00 84 1010.4
20260506121527 17 254 6.4 22.5 0.00 0.00 0.00 84 1010.3
20260506121007 17 242 3.2 20.9 0.00 0.00 0.00 84 1010.3
20260506120513 17 265 4.8 29.0 0.00 0.00 0.00 84 1010.0
20260506120022 17 175 14.5 29.0 0.00 0.00 0.00 84 1010.0
20260506115509 17 212 4.8 19.3 0.00 0.00 0.00 84 1010.0
20260506115011 17 22 3.2 22.5 0.00 0.00 0.00 84 1010.0
20260506114505 17 280 6.4 22.5 0.00 0.00 0.00 84 1009.9
20260506114004 17 93 4.8 22.5 0.00 0.00 0.00 84 1009.8
20260506113510 17 257 4.8 22.5 0.00 0.00 0.00 84 1009.9
20260506113004 17 9 3.2 24.1 0.00 0.00 0.00 84 1009.8
20260506112508 17 255 8.0 30.6 0.00 0.00 0.00 84 1009.7
20260506112003 17 153 4.8 30.6 0.00 0.00 0.00 84 1009.7
20260506111504 17 254 6.4 25.7 0.00 0.00 0.00 84 1009.8
20260506111004 17 201 8.0 22.5 0.00 0.00 0.00 84 1009.8
20260506110504 17 265 3.2 17.7 0.00 0.00 0.00 84 1009.7
20260506110015 17 31 4.8 19.3 0.00 0.00 0.00 84 1009.7
20260506105504 17 205 4.8 22.5 0.00 0.00 0.00 84 1009.6
20260506105003 17 144 6.4 22.5 0.00 0.00 0.00 84 1009.6
20260506104503 17 313 4.8 22.5 0.00 0.00 0.00 84 1009.6
20260506104003 17 243 4.8 22.5 0.00 0.00 0.00 84 1009.7
20260506103503 17 309 6.4 22.5 0.00 0.00 0.00 84 1009.7
20260506103008 17 80 4.8 22.5 0.00 0.00 0.00 84 1009.7
20260506102503 17 261 4.8 17.7 0.00 0.00 0.00 84 1009.7
20260506102004 17 30 3.2 16.1 0.00 0.00 0.00 84 1009.8
20260506101507 17 9 3.2 16.1 0.00 0.00 0.00 84 1009.7
20260506101007 17 247 3.2 16.1 0.00 0.00 0.00 84 1009.7
20260506100504 17 243 3.2 16.1 0.00 0.00 0.00 84 1009.6
20260506100004 17 153 3.2 30.6 0.00 0.00 0.00 84 1009.7
20260506095505 17 248 4.8 30.6 0.00 0.00 0.00 84 1009.7
20260506095002 17 238 4.8 30.6 0.00 0.00 0.00 84 1009.6
20260506094503 17 265 6.4 20.9 0.00 0.00 0.00 84 1009.6
20260506094005 17 172 6.4 19.3 0.00 0.00 0.00 83 1009.6
20260506093505 17 221 4.8 24.1 0.00 0.00 0.00 83 1009.7
20260506093003 17 288 8.0 27.4 0.00 0.00 0.00 83 1009.7
20260506092503 17 232 3.2 27.4 0.00 0.00 0.00 83 1009.8
20260506092004 17 280 4.8 16.1 0.00 0.00 0.00 82 1009.8
20260506091518 18 265 4.8 19.3 0.00 0.00 0.00 82 1009.8
20260506091003 18 254 6.4 22.5 0.00 0.00 0.00 82 1009.7
20260506090502 18 250 4.8 20.9 0.00 0.00 0.00 82 1009.8
20260506090020 18 201 3.2 24.1 0.00 0.00 0.00 82 1009.8
20260506085503 18 254 6.4 24.1 0.00 0.00 0.00 82 1009.8
20260506085003 18 279 4.8 17.7 0.00 0.00 0.00 82 1009.8
20260506084525 18 279 3.2 17.7 0.00 0.00 0.00 82 1009.8
20260506084008 18 162 6.4 17.7 0.00 0.00 0.00 82 1009.8
20260506081004 18 243 6.4 29.0 0.00 0.00 0.00 81 1009.8
20260506080506 18 247 3.2 24.1 0.00 0.00 0.00 82 1009.8
20260506071008 18 250 4.8 25.7 0.00 0.00 0.00 81 1010.1
20260506070508 18 172 8.0 24.1 0.00 0.00 0.00 81 1010.1
20260506061010 18 243 1.6 20.9 0.00 0.00 0.00 79 1010.6
20260506060505 18 247 1.6 20.9 0.00 0.00 0.00 78 1010.6
20260506051004 19 303 3.2 17.7 0.00 0.00 0.00 77 1010.9
20260506050505 19 51 1.6 16.1 0.00 0.00 0.00 77 1011.1
20260506045006 19 292 4.8 12.9 0.00 0.00 0.00 76 1011.0
20260506041005 19 93 1.6 14.5 0.00 0.00 0.00 76 1011.0
20260506040506 19 221 3.2 14.5 0.00 0.00 0.00 75 1011.1
20260506040008 19 249 3.2 14.5 0.00 0.00 0.00 75 1011.1
20260506035502 19 9 1.6 14.5 0.00 0.00 0.00 75 1011.0
20260506035002 19 272 1.6 17.7 0.00 0.00 0.00 75 1011.0
20260506034505 19 93 3.2 17.7 0.00 0.00 0.00 75 1010.8
20260506034007 19 344 3.2 14.5 0.00 0.00 0.00 75 1010.9
20260506033502 19 9 4.8 14.5 0.00 0.00 0.00 75 1010.8
20260506033004 19 178 3.2 17.7 0.00 0.00 0.00 75 1010.8
20260506032504 19 279 1.6 17.7 0.00 0.00 0.00 75 1010.8
20260506032006 19 153 1.6 20.9 0.00 0.00 0.00 75 1010.8
20260506031506 19 196 3.2 20.9 0.00 0.00 0.00 74 1010.8
20260506031003 20 244 3.2 16.1 0.00 0.00 0.00 75 1010.8
20260506030506 20 321 3.2 16.1 0.00 0.00 0.00 75 1010.8
20260506030011 20 205 3.2 20.9 0.00 0.00 0.00 75 1010.8
20260506025509 20 292 1.6 20.9 0.00 0.00 0.00 74 1010.9
20260506025004 20 68 3.2 16.1 0.00 0.00 0.00 74 1010.9
20260506024515 20 265 4.8 16.1 0.00 0.00 0.00 74 1011.0
20260506024002 20 205 1.6 12.9 0.00 0.00 0.00 74 1010.9
20260506023502 20 239 1.6 17.7 0.00 0.00 0.00 74 1011.0
20260506023007 20 321 4.8 17.7 0.00 0.00 0.00 74 1011.0
20260506022508 20 279 4.8 14.5 0.00 0.00 0.00 73 1011.0
20260506022003 20 146 3.2 14.5 0.00 0.00 0.00 73 1011.0
20260506021503 20 221 3.2 19.3 0.00 0.00 0.00 73 1011.0
20260506021004 20 195 3.2 19.3 0.00 0.00 0.00 73 1011.0
20260506020507 20 178 1.6 16.1 0.00 0.00 0.00 73 1011.0
20260506020003 20 178 1.6 16.1 0.00 0.00 0.00 73 1010.9
20260506015503 20 286 1.6 16.1 0.00 0.00 0.00 72 1010.9
20260506015006 20 210 4.8 16.1 0.00 0.00 0.00 72 1010.8
20260506014502 20 330 3.2 11.3 0.00 0.00 0.00 72 1010.7
20260506014004 20 247 1.6 8.0 0.00 0.00 0.00 72 1010.6
20260506013505 21 279 3.2 16.1 0.00 0.00 0.00 72 1010.6
20260506013014 21 239 3.2 16.1 0.00 0.00 0.00 72 1010.6
20260506012503 21 232 1.6 12.9 0.00 0.00 0.00 71 1010.5
20260506012003 21 239 3.2 14.5 0.00 0.00 0.00 71 1010.4
20260506011523 21 328 4.8 14.5 0.00 0.00 0.00 71 1010.4
20260506011010 21 292 3.2 17.7 0.00 0.00 0.00 71 1010.4
20260506010503 21 200 4.8 17.7 0.00 0.00 0.00 70 1010.3
20260506010006 21 221 4.8 14.5 0.00 0.00 0.00 70 1010.2
20260506005504 21 178 4.8 24.1 0.00 0.00 0.00 69 1010.2
20260506005003 22 273 8.0 24.1 0.00 0.00 0.00 69 1010.1
20260506004511 22 360 1.6 14.5 0.00 0.00 0.00 69 1010.1
20260506004003 22 221 3.2 14.5 0.00 0.00 0.00 69 1010.1
20260506003506 22 292 3.2 17.7 0.00 0.00 0.00 68 1010.0
20260506003003 22 292 3.2 17.7 0.00 0.00 0.00 68 1010.0
20260506002504 22 178 4.8 29.0 0.00 0.00 0.00 68 1009.9
20260506002006 22 244 4.8 29.0 0.00 0.00 0.00 67 1010.0
20260506001516 22 205 9.7 29.0 0.00 0.00 0.00 67 1009.9
20260506001004 22 319 8.0 19.3 0.00 0.00 0.00 66 1009.8
20260506000502 22 245 4.8 11.3 0.00 0.00 0.00 66 1009.7
20260506000014 23 232 3.2 14.5 0.00 0.00 0.00 65 1009.7
20260505235502 23 250 1.6 14.5 0.00 0.00 0.00 65 1009.7
20260505235003 23 190 4.8 19.3 0.00 0.00 0.00 64 1009.6
20260505234509 23 51 1.6 19.3 0.00 0.00 0.00 64 1009.5
20260505234012 23 271 3.2 17.7 0.00 0.00 0.00 64 1009.5
20260505233504 23 93 1.6 12.9 0.00 0.00 0.00 64 1009.4
20260505233005 23 265 1.6 14.5 0.00 0.00 0.00 64 1009.4
20260505232505 23 68 4.8 20.9 0.00 0.00 0.00 63 1009.5
20260505232010 23 68 3.2 19.3 0.00 0.00 0.00 63 1009.5
20260505231504 24 209 3.2 19.3 0.00 0.00 0.00 63 1009.5
20260505231004 24 200 3.2 14.5 0.00 0.00 0.00 62 1009.6
20260505230506 24 280 3.2 14.5 0.00 0.00 0.00 62 1009.5
20260505230020 24 265 4.8 22.5 0.00 0.00 0.00 61 1009.5
20260505225505 25 124 4.8 22.5 0.00 0.00 0.00 61 1009.4
20260505225006 25 85 4.8 17.7 0.00 0.00 0.00 61 1009.5
20260505224516 25 207 6.4 24.1 0.00 0.00 0.00 60 1009.5
20260505224003 25 334 3.2 24.1 0.00 0.00 0.00 62 1009.4
20260505223504 25 265 6.4 29.0 0.00 0.00 0.00 60 1009.4
20260505223016 25 309 6.4 29.0 0.00 0.00 0.00 60 1009.5
20260505222510 25 252 8.0 22.5 0.00 0.00 0.00 60 1009.5